Weather in Krabi

Thailand     8°04′15″N   98°54′59″E
temp.,
°C
wind,
m/s
gust,
m/s
humid.,
%
clouds,
%
prec.,
mm/h
press.,
hPa
HPBL,
m
9 may, sun
sun901:00+26ne238787 0.0 1009143
04:00+26ne238787 0.0 1008124
07:00+25ne3588100 0.0 1009199
10:00+30ene236357 0.0 1010806
13:00+34se1349100 0.0 10071314
16:00+29sw457795 0.6 1006249
19:00+28sse0078100 2.5 100760
22:00+27e2484100 0.0 1008173
10 may, mon
mon1001:00+26e2489100 0.0 1007143
04:00+25ne2390100 0.0 1006133
07:00+26ene2389100 0.0 1008155
10:00+30ne2367100 0.0 1009783
13:00+33w135245 0.0 10071366
16:00+29ssw337953 0.6 1005228
19:00+28sw127640 1.1 1007151
22:00+28se117997 0.1 1009239
11 may, tue
tue1101:00+26ene118775 0.1 100786
04:00+26ne2289100 0.0 100691
07:00+26ene228988 0.0 1007126
10:00+31ne1265100 0.0 1009780
13:00+31wsw446258 0.0 10071293
16:00+30w446755 0.1 1005572
19:00+28sw137944 1.4 1007199
22:00+27se128353 0.1 1008142
12 may, wed
wed1201:00+26ese228641 0.6 100798
04:00+26ene118868 0.0 100694
07:00+26ene128759 0.0 1008112
10:00+31n0166100 0.0 1009644
13:00+31wsw4366100 0.0 1006855
16:00+30wsw556769 0.0 1004576
19:00+29wsw247767 0.0 1005303
22:00+28sw12825 0.6 100788
13 may, thu
thu1301:00+27ssw128254 1.6 1006231
04:00+26ese118613 0.7 100561
07:00+26e128818 0.7 1007125
10:00+31ssw116735 0.0 1008751
13:00+30wsw546994 0.0 1006670
16:00+30sw457199 0.3 1004507
19:00+28wsw238153 3.4 1004105
22:00+28sw12815 1.1 1006193